Time,TemperatureF,DewpointF,PressureIn,WindDirection,WindDirectionDegrees,WindSpeedMPH,WindSpeedGustMPH,Humidity,HourlyPrecipIn,Conditions,Clouds,dailyrainin,SoftwareType,DateUTC
2013-07-11 00:12:00,58.0,-99.9,-100.00,WNW,296,6.0,-999.0,-999,-99.99,,,-99.99,,2013-07-11 07:12:00,
2013-07-11 00:20:00,58.0,-99.9,-100.00,West,261,2.0,-999.0,-999,-99.99,,,-99.99,,2013-07-11 07:20:00,
2013-07-11 01:12:00,58.0,-99.9,-100.00,West,261,2.0,-999.0,-999,-99.99,,,-99.99,,2013-07-11 08:12:00,
2013-07-11 01:20:00,57.0,-99.9,-100.00,SSW,196,2.0,-999.0,-999,-99.99,,,-99.99,,2013-07-11 08:20:00,
2013-07-11 02:03:00,57.0,-99.9,-100.00,SSW,196,2.0,-999.0,-999,-99.99,,,-99.99,,2013-07-11 09:03:00,
2013-07-11 02:12:00,57.0,-99.9,-100.00,SSW,196,2.0,-999.0,-999,-99.99,,,-99.99,,2013-07-11 09:12:00,
2013-07-11 02:20:00,55.0,-99.9,-100.00,SSE,161,2.0,-999.0,-999,-99.99,,,-99.99,,2013-07-11 09:20:00,
2013-07-11 03:02:00,55.0,-99.9,-100.00,SSE,161,2.0,-999.0,-999,-99.99,,,-99.99,,2013-07-11 10:02:00,
2013-07-11 03:12:00,55.0,-99.9,-100.00,SSE,161,2.0,-999.0,-999,-99.99,,,-99.99,,2013-07-11 10:12:00,
2013-07-11 03:20:00,55.0,-99.9,-100.00,SSE,168,0.0,-999.0,-999,-99.99,,,-99.99,,2013-07-11 10:20:00,
2013-07-11 04:12:00,55.0,-99.9,-100.00,SSE,168,0.0,-999.0,-999,-99.99,,,-99.99,,2013-07-11 11:12:00,
2013-07-11 04:20:00,55.0,-99.9,-100.00,SSW,193,2.0,-999.0,-999,-99.99,,,-99.99,,2013-07-11 11:20:00,
2013-07-11 05:12:00,55.0,-99.9,-100.00,SSW,193,2.0,-999.0,-999,-99.99,,,-99.99,,2013-07-11 12:12:00,
2013-07-11 05:20:00,55.0,-99.9,-100.00,South,178,1.0,-999.0,-999,-99.99,,,-99.99,,2013-07-11 12:20:00,
2013-07-11 06:15:00,55.0,-99.9,-100.00,South,178,1.0,-999.0,-999,-99.99,,,-99.99,,2013-07-11 13:15:00,
2013-07-11 06:20:00,54.0,-99.9,-100.00,South,185,3.0,-999.0,-999,-99.99,,,-99.99,,2013-07-11 13:20:00,
2013-07-11 07:15:00,54.0,-99.9,-100.00,SSW,198,1.0,-999.0,-999,-99.99,,,-99.99,,2013-07-11 14:15:00,
2013-07-11 07:16:00,54.0,-99.9,-100.00,South,185,3.0,-999.0,-999,-99.99,,,-99.99,,2013-07-11 14:16:00,
2013-07-11 08:20:00,55.0,-99.9,-100.00,North,0,0.0,-999.0,-999,-99.99,,,-99.99,,2013-07-11 15:20:00,
2013-07-11 09:07:00,55.0,-99.9,-100.00,North,0,0.0,-999.0,-999,-99.99,,,-99.99,,2013-07-11 16:07:00,
2013-07-11 09:15:00,55.0,-99.9,-100.00,North,0,0.0,-999.0,-999,-99.99,,,-99.99,,2013-07-11 16:15:00,
2013-07-11 10:20:00,56.0,-99.9,-100.00,NE,36,3.0,-999.0,-999,-99.99,,,-99.99,,2013-07-11 17:20:00,
2013-07-11 11:07:00,56.0,-99.9,-100.00,NE,36,3.0,-999.0,-999,-99.99,,,-99.99,,2013-07-11 18:07:00,
2013-07-11 11:17:00,56.0,-99.9,-100.00,NE,36,3.0,-999.0,-999,-99.99,,,-99.99,,2013-07-11 18:17:00,
2013-07-11 12:13:00,58.0,-99.9,-100.00,NNE,13,6.0,-999.0,-999,-99.99,,,-99.99,,2013-07-11 19:13:00,
2013-07-11 12:20:00,59.0,-99.9,-100.00,North,352,2.0,-999.0,-999,-99.99,,,-99.99,,2013-07-11 19:20:00,
2013-07-11 13:14:00,59.0,-99.9,-100.00,North,352,2.0,-999.0,-999,-99.99,,,-99.99,,2013-07-11 20:14:00,
2013-07-11 13:15:00,62.0,-99.9,-100.00,NW,307,0.0,-999.0,-999,-99.99,,,-99.99,,2013-07-11 20:15:00,
2013-07-11 14:20:00,61.0,-99.9,-100.00,NNW,332,0.0,-999.0,-999,-99.99,,,-99.99,,2013-07-11 21:20:00,
2013-07-11 15:07:00,61.0,-99.9,-100.00,NNW,332,0.0,-999.0,-999,-99.99,,,-99.99,,2013-07-11 22:07:00,
2013-07-11 15:18:00,61.0,-99.9,-100.00,NNW,332,0.0,-999.0,-999,-99.99,,,-99.99,,2013-07-11 22:18:00,
2013-07-11 15:20:00,63.0,-99.9,-100.00,NNW,327,1.0,-999.0,-999,-99.99,,,-99.99,,2013-07-11 22:20:00,
2013-07-11 16:15:00,63.0,-99.9,-100.00,NNW,327,1.0,-999.0,-999,-99.99,,,-99.99,,2013-07-11 23:15:00,
2013-07-11 16:20:00,62.0,-99.9,-100.00,North,1,3.0,-999.0,-999,-99.99,,,-99.99,,2013-07-11 23:20:00,
2013-07-11 17:06:00,62.0,-99.9,-100.00,North,1,3.0,-999.0,-999,-99.99,,,-99.99,,2013-07-12 00:06:00,
2013-07-11 17:16:00,62.0,-99.9,-100.00,North,1,3.0,-999.0,-999,-99.99,,,-99.99,,2013-07-12 00:16:00,
2013-07-11 18:14:00,62.0,-99.9,-100.00,North,349,14.0,-999.0,-999,-99.99,,,-99.99,,2013-07-12 01:14:00,
2013-07-11 18:20:00,63.0,-99.9,-100.00,NNW,336,15.0,-999.0,-999,-99.99,,,-99.99,,2013-07-12 01:20:00,
2013-07-11 19:20:00,64.0,-99.9,-100.00,NNW,335,6.0,-999.0,-999,-99.99,,,-99.99,,2013-07-12 02:20:00,
2013-07-11 20:20:00,60.0,-99.9,-100.00,NNE,22,1.0,-999.0,-999,-99.99,,,-99.99,,2013-07-12 03:20:00,
2013-07-11 21:11:00,60.0,-99.9,-100.00,NNE,22,1.0,-999.0,-999,-99.99,,,-99.99,,2013-07-12 04:11:00,
2013-07-11 21:20:00,60.0,-99.9,-100.00,North,4,8.0,-999.0,-999,-99.99,,,-99.99,,2013-07-12 04:20:00,
2013-07-11 22:12:00,60.0,-99.9,-100.00,North,4,8.0,-999.0,-999,-99.99,,,-99.99,,2013-07-12 05:12:00,
2013-07-11 23:11:00,59.0,-99.9,-100.00,NNW,328,9.0,-999.0,-999,-99.99,,,-99.99,,2013-07-12 06:11:00,
2013-07-11 23:20:00,58.0,-99.9,-100.00,NW,317,10.0,-999.0,-999,-99.99,,,-99.99,,2013-07-12 06:20:00,